FW8253 Weather Reports


time (UTC)temp
C
wind
direction
speed
KPH
gust
KPH
rain 1hr
cm
rain 24hr
cm
rain mn
cm
humidity
%
barometer
mb
20260831151729 30 223 0.0 0.0 0.00 0.00 0.00 75 1021.3
20260831151229 29 223 0.0 0.0 0.00 0.00 0.00 77 1021.4
20260831150724 29 353 0.0 0.0 0.00 0.00 0.00 75 1021.3
20260831150220 30 335 0.0 0.0 0.00 0.00 0.00 74 1021.8
20260831145719 30 284 0.0 0.0 0.00 0.00 0.00 75 1021.5
20260831145216 29 210 0.0 0.0 0.00 0.00 0.00 77 1021.9
20260831144711 28 188 0.0 0.0 0.00 0.00 0.00 82 1021.5
20260831144207 27 229 0.0 0.0 0.00 0.00 0.00 86 1021.6
20260831143706 27 230 0.0 0.0 0.00 0.00 0.00 87 1021.8
20260831143202 27 218 0.0 0.0 0.00 0.00 0.00 86 1021.9
20260831142658 27 227 0.0 0.0 0.00 0.00 0.00 89 1021.5
20260831142153 27 234 0.0 0.0 0.00 0.00 0.00 89 1021.9
20260831141652 27 234 0.0 0.0 0.00 0.00 0.00 90 1021.8
20260831141147 27 234 0.0 0.0 0.00 0.00 0.00 90 1021.6
20260831140646 27 198 0.0 0.0 0.00 0.00 0.00 89 1021.9
20260831140141 27 0 0.0 0.0 0.00 0.00 0.00 88 1021.6
20260831135639 27 203 0.0 0.0 0.00 0.00 0.00 88 1021.8
20260831135135 27 187 0.0 0.0 0.00 0.00 0.00 88 1021.8
20260831134631 27 202 0.0 0.0 0.00 0.00 0.00 89 1021.6
20260831134126 27 13 0.0 0.0 0.00 0.00 0.00 89 1021.8
20260831133625 27 240 0.0 0.0 0.00 0.00 0.00 89 1021.9
20260831133120 27 10 0.0 0.0 0.00 0.00 0.00 89 1021.9
20260831132616 27 151 0.0 0.0 0.00 0.00 0.00 89 1021.9
20260831132115 27 151 0.0 0.0 0.00 0.00 0.00 87 1021.9
20260831131610 26 154 0.0 0.0 0.00 0.00 0.00 90 1021.8
20260831131107 25 187 0.0 0.0 0.00 0.00 0.00 95 1021.9
20260831130601 25 173 0.0 0.0 0.00 0.00 0.00 98 1022.0
20260831130056 23 194 0.0 0.0 0.00 0.00 0.00 99 1021.8
20260831125555 23 194 0.0 0.0 0.00 0.00 0.00 99 1021.8
20260831125051 23 194 0.0 0.0 0.00 0.00 0.00 99 1021.8
20260831124547 22 194 0.0 0.0 0.00 0.00 0.00 99 1021.9
20260831124043 22 194 0.0 0.0 0.00 0.00 0.00 99 1021.4
20260831123542 22 194 0.0 0.0 0.00 0.00 0.00 99 1021.8
20260831123036 22 194 0.0 0.0 0.00 0.00 0.00 99 1021.6
20260831122531 21 194 0.0 0.0 0.00 0.00 0.00 99 1021.5
20260831122026 21 194 0.0 0.0 0.00 0.00 0.00 99 1021.4
20260831121521 21 194 0.0 0.0 0.00 0.00 0.00 99 1021.6
20260831121017 21 194 0.0 0.0 0.00 0.00 0.00 99 1021.4
20260831120516 21 194 0.0 0.0 0.00 0.00 0.00 99 1021.5
20260831120012 21 194 0.0 0.0 0.00 0.00 0.00 99 1021.4
20260831115508 21 194 0.0 0.0 0.00 0.00 0.00 99 1021.2
20260831115003 21 194 0.0 0.0 0.00 0.00 0.00 99 1021.4
20260831114502 21 194 0.0 0.0 0.00 0.00 0.00 99 1021.3
20260831113957 21 194 0.0 0.0 0.00 0.00 0.00 99 1021.3
20260831113456 21 194 0.0 0.0 0.00 0.00 0.00 99 1021.2
20260831112952 20 195 0.0 0.0 0.00 0.00 0.00 99 1021.1
20260831112451 20 195 0.0 0.0 0.00 0.00 0.00 99 1021.1
20260831111947 20 195 0.0 0.0 0.00 0.00 0.00 99 1021.1
20260831111443 20 195 0.0 0.0 0.00 0.00 0.00 99 1020.9
20260831110938 20 195 0.0 0.0 0.00 0.00 0.00 99 1020.9
20260831110433 20 195 0.0 0.0 0.00 0.00 0.00 99 1021.0
20260831105932 20 195 0.0 0.0 0.00 0.00 0.00 99 1021.1
20260831105427 21 195 0.0 0.0 0.00 0.00 0.00 99 1021.0
20260831104923 21 195 0.0 0.0 0.00 0.00 0.00 99 1020.9
20260831104419 21 194 0.0 0.0 0.00 0.00 0.00 99 1020.9
20260831103914 21 194 0.0 0.0 0.00 0.00 0.00 99 1021.0
20260831103414 21 193 0.0 0.0 0.00 0.00 0.00 99 1021.0
20260831102909 21 193 0.0 0.0 0.00 0.00 0.00 99 1020.9
20260831102404 21 191 0.0 0.0 0.00 0.00 0.00 99 1021.0
20260831101859 21 190 0.0 0.0 0.00 0.00 0.00 99 1021.0
20260831101354 21 232 0.0 0.0 0.00 0.00 0.00 99 1020.8
20260831100851 21 232 0.0 0.0 0.00 0.00 0.00 99 1020.8
20260831100347 21 232 0.0 0.0 0.00 0.00 0.00 99 1020.7
20260831095846 21 232 0.0 0.0 0.00 0.00 0.00 99 1020.8
20260831095345 21 232 0.0 0.0 0.00 0.00 0.00 99 1020.8
20260831094841 21 232 0.0 0.0 0.00 0.00 0.00 99 1020.8
20260831094336 21 232 0.0 0.0 0.00 0.00 0.00 99 1020.8
20260831093832 21 232 0.0 0.0 0.00 0.00 0.00 99 1020.8
20260831093327 21 232 0.0 0.0 0.00 0.00 0.00 99 1020.7
20260831092824 21 232 0.0 0.0 0.00 0.00 0.00 99 1020.7
20260831092319 21 232 0.0 0.0 0.00 0.00 0.00 99 1020.7
20260831091814 21 232 0.0 0.0 0.00 0.00 0.00 99 1020.8
20260831091310 21 232 0.0 0.0 0.00 0.00 0.00 99 1020.7
20260831090805 21 232 0.0 0.0 0.00 0.00 0.00 99 1020.7
20260831090301 21 233 0.0 0.0 0.00 0.00 0.00 99 1020.8
20260831085757 21 234 0.0 0.0 0.00 0.00 0.00 99 1020.5
20260831085251 21 235 0.0 0.0 0.00 0.00 0.00 99 1020.5
20260831084746 21 235 0.0 0.0 0.00 0.00 0.00 99 1020.3
20260831084243 21 235 0.0 0.0 0.00 0.00 0.00 99 1020.3
20260831083738 21 235 0.0 0.0 0.00 0.00 0.00 99 1020.5
20260831083234 21 235 0.0 0.0 0.00 0.00 0.00 99 1020.6
20260831082732 21 235 0.0 0.0 0.00 0.00 0.00 99 1020.5
20260831082228 21 235 0.0 0.0 0.00 0.00 0.00 99 1020.3
20260831081723 21 235 0.0 0.0 0.00 0.00 0.00 99 1020.5
20260831081219 21 235 0.0 0.0 0.00 0.00 0.00 99 1020.4
20260831080714 21 235 0.0 0.0 0.00 0.00 0.00 99 1020.2
20260831080214 21 235 0.0 0.0 0.00 0.00 0.00 99 1020.4
20260831075710 21 235 0.0 0.0 0.00 0.00 0.00 99 1020.2
20260831075206 21 235 0.0 0.0 0.00 0.00 0.00 99 1020.3
20260831074705 21 235 0.0 0.0 0.00 0.00 0.00 99 1020.3
20260831074204 22 235 0.0 0.0 0.00 0.00 0.00 99 1020.4
20260831073700 22 235 0.0 0.0 0.00 0.00 0.00 99 1020.4
20260831073159 22 235 0.0 0.0 0.00 0.00 0.00 99 1020.3
20260831072655 21 235 0.0 0.0 0.00 0.00 0.00 99 1020.1
20260831072151 21 235 0.0 0.0 0.00 0.00 0.00 99 1020.2
20260831071650 22 235 0.0 0.0 0.00 0.00 0.00 99 1019.9
20260831071144 22 235 0.0 0.0 0.00 0.00 0.00 99 1020.3
20260831070639 22 235 0.0 0.0 0.00 0.00 0.00 99 1020.2
20260831070133 22 235 0.0 0.0 0.00 0.00 0.00 99 1020.4
20260831065632 22 235 0.0 0.0 0.00 0.00 0.00 99 1020.5
20260831065131 22 235 0.0 0.0 0.00 0.00 0.00 99 1020.6
20260831064626 22 235 0.0 0.0 0.00 0.00 0.00 99 1020.5
20260831064121 22 235 0.0 0.0 0.00 0.00 0.00 99 1020.4
20260831063617 22 235 0.0 0.0 0.00 0.00 0.00 99 1020.6
20260831063112 22 235 0.0 0.0 0.00 0.00 0.00 99 1020.7
20260831062607 22 235 0.0 0.0 0.00 0.00 0.00 99 1020.7
20260831062107 22 235 0.0 0.0 0.00 0.00 0.00 99 1020.5
20260831061604 22 235 0.0 0.0 0.00 0.00 0.00 99 1020.7
20260831061101 22 235 0.0 0.0 0.00 0.00 0.00 99 1020.8
20260831060556 22 235 0.0 0.0 0.00 0.00 0.00 99 1020.8
20260831060051 22 235 0.0 0.0 0.00 0.00 0.00 99 1020.8
20260831055545 22 235 0.0 0.0 0.00 0.00 0.00 99 1021.0
20260831055041 22 235 0.0 0.0 0.00 0.00 0.00 99 1020.9
20260831054540 22 235 0.0 0.0 0.00 0.00 0.00 99 1020.8
20260831054040 22 235 0.0 0.0 0.00 0.00 0.00 99 1020.8
20260831053538 22 234 0.0 0.0 0.00 0.00 0.00 99 1020.7
20260831053033 22 234 0.0 0.0 0.00 0.00 0.00 99 1020.6
20260831052532 22 234 0.0 0.0 0.00 0.00 0.00 99 1020.7
20260831052026 22 234 0.0 0.0 0.00 0.00 0.00 99 1020.6
20260831051524 22 234 0.0 0.0 0.00 0.00 0.00 99 1020.8
20260831051024 22 234 0.0 0.0 0.00 0.00 0.00 99 1020.7
20260831050523 22 234 0.0 0.0 0.00 0.00 0.00 99 1020.6
20260831050022 22 234 0.0 0.0 0.00 0.00 0.00 99 1020.8
20260831045521 22 234 0.0 0.0 0.00 0.00 0.00 99 1020.8
20260831045017 22 234 0.0 0.0 0.00 0.00 0.00 99 1021.0
20260831044512 22 234 0.0 0.0 0.00 0.00 0.00 99 1020.9
20260831044008 22 234 0.0 0.0 0.00 0.00 0.00 99 1020.8
20260831043507 22 234 0.0 0.0 0.00 0.00 0.00 99 1021.1
20260831043002 22 234 0.0 0.0 0.00 0.00 0.00 99 1020.9
20260831042457 22 234 0.0 0.0 0.00 0.00 0.00 99 1020.9
20260831041956 22 234 0.0 0.0 0.00 0.00 0.00 99 1020.9
20260831041451 22 229 0.0 0.0 0.00 0.00 0.00 99 1021.0
20260831040946 22 229 0.0 0.0 0.00 0.00 0.00 98 1021.1
20260831040441 22 224 0.0 0.0 0.00 0.00 0.00 98 1021.1
20260831035938 22 224 0.0 0.0 0.00 0.00 0.00 98 1021.3
20260831035437 23 224 0.0 0.0 0.00 0.00 0.00 98 1021.1
20260831034932 23 224 0.0 0.0 0.00 0.00 0.00 98 1021.0
20260831034427 23 220 0.0 0.0 0.00 0.00 0.00 98 1021.2
20260831033923 23 232 0.0 0.0 0.00 0.00 0.00 98 1021.0
20260831033418 23 231 0.0 0.0 0.00 0.00 0.00 98 1021.0
20260831032914 23 231 0.0 0.0 0.00 0.00 0.00 97 1020.9
20260831032408 23 231 0.0 0.0 0.00 0.00 0.00 97 1021.0
20260831031903 23 231 0.0 0.0 0.00 0.00 0.00 97 1021.1
20260831031402 23 231 0.0 0.0 0.00 0.00 0.00 97 1021.1
20260831030857 23 231 0.0 0.0 0.00 0.00 0.00 96 1021.2
20260831030356 23 231 0.0 0.0 0.00 0.00 0.00 96 1021.1
20260831025854 23 231 0.0 0.0 0.00 0.00 0.00 96 1021.3
20260831025349 23 225 0.0 0.0 0.00 0.00 0.00 95 1021.5
20260831024845 23 221 0.0 0.0 0.00 0.00 0.00 95 1021.3
20260831024344 23 229 0.0 0.0 0.00 0.00 0.00 95 1021.3
20260831023843 23 180 0.0 0.0 0.00 0.00 0.00 95 1021.0
20260831023341 23 179 0.0 0.0 0.00 0.00 0.00 95 1021.0
20260831022837 23 190 0.0 0.0 0.00 0.00 0.00 95 1020.9
20260831022336 24 244 0.0 0.0 0.00 0.00 0.00 95 1021.0
20260831021831 24 236 0.0 0.0 0.00 0.00 0.00 94 1020.8
20260831021330 24 236 0.0 0.0 0.00 0.00 0.00 94 1021.0
20260831020826 24 236 0.0 0.0 0.00 0.00 0.00 93 1020.7
20260831020321 25 236 0.0 0.0 0.00 0.00 0.00 92 1020.9
20260831015816 25 236 0.0 0.0 0.00 0.00 0.00 91 1020.8
20260831015312 25 236 0.0 0.0 0.00 0.00 0.00 91 1020.7
20260831014811 25 174 0.0 0.0 0.00 0.00 0.00 90 1020.9
20260831014306 25 174 0.0 0.0 0.00 0.00 0.00 90 1020.8
20260831013803 25 174 0.0 0.0 0.00 0.00 0.00 89 1020.9
20260831013302 25 175 0.0 0.0 0.00 0.00 0.00 89 1020.7
20260831012757 25 187 0.0 0.0 0.00 0.00 0.00 89 1021.0
20260831012253 25 187 0.0 0.0 0.00 0.00 0.00 89 1020.6
20260831011751 25 187 0.0 0.0 0.00 0.00 0.00 88 1020.4
20260831011247 25 187 0.0 0.0 0.00 0.00 0.00 88 1020.5
20260831010743 26 187 0.0 0.0 0.00 0.00 0.00 88 1020.6
20260831010237 26 187 0.0 0.0 0.00 0.00 0.00 87 1020.4
20260831005732 26 186 0.0 0.0 0.00 0.00 0.00 86 1020.4
20260831005228 26 186 0.0 0.0 0.00 0.00 0.00 86 1020.3
20260831004723 26 185 0.0 0.0 0.00 0.00 0.00 85 1020.2
20260831004219 26 189 0.0 0.0 0.00 0.00 0.00 84 1020.4
20260831003715 26 189 0.0 0.0 0.00 0.00 0.00 84 1020.4
20260831003211 27 184 0.0 0.0 0.00 0.00 0.00 83 1020.2
20260831002709 27 201 0.0 0.0 0.00 0.00 0.00 82 1020.3
20260831002204 27 223 0.0 0.0 0.00 0.00 0.00 82 1020.3
20260831001701 27 172 0.0 0.0 0.00 0.00 0.00 81 1020.0
20260831001200 27 219 0.0 0.0 0.00 0.00 0.00 81 1020.0
20260831000657 28 211 0.0 0.0 0.00 0.00 0.00 81 1020.2
20260831000152 28 234 0.0 0.0 0.00 0.00 0.00 81 1020.3
20260830235650 28 180 0.0 0.0 0.00 0.00 0.00 81 1020.0
20260830235146 28 172 0.0 0.0 0.00 0.00 0.00 79 1020.0
20260830234641 28 188 0.0 0.0 0.00 0.00 0.00 78 1020.0
20260830234136 29 219 0.0 0.0 0.00 0.00 0.00 76 1019.8
20260830233632 30 170 0.0 0.0 0.00 0.00 0.00 74 1019.7
20260830233127 30 172 0.0 0.0 0.00 0.00 0.00 74 1019.7
20260830232623 30 168 0.0 0.0 0.00 0.00 0.00 74 1019.8
20260830232119 30 184 0.0 0.0 0.00 0.00 0.00 74 1019.7
20260830231615 30 204 0.0 0.0 0.00 0.00 0.00 72 1019.4
20260830231114 30 231 0.0 0.0 0.00 0.00 0.00 72 1019.4
20260830230609 30 201 0.0 0.0 0.00 0.00 0.00 71 1019.7
20260830230104 30 158 0.0 0.0 0.00 0.00 0.00 71 1019.7
20260830225559 30 115 0.0 0.0 0.00 0.00 0.00 71 1019.6
20260830225059 30 182 0.0 0.0 0.00 0.00 0.00 74 1019.6
20260830224558 30 151 0.0 0.0 0.00 0.00 0.00 72 1019.4
20260830224055 30 158 0.0 0.0 0.00 0.00 0.00 73 1019.7
20260830223552 30 193 0.0 0.0 0.00 0.00 0.00 71 1019.5
20260830223051 30 226 0.0 0.0 0.00 0.00 0.00 71 1019.4
20260830222545 30 177 0.0 0.0 0.00 0.00 0.00 72 1019.7
20260830222041 30 212 0.0 0.0 0.00 0.00 0.00 73 1019.5
20260830221537 30 291 0.0 0.0 0.00 0.00 0.00 73 1019.7
20260830221033 30 238 0.0 0.0 0.00 0.00 0.00 78 1019.5
20260830220532 30 240 0.0 0.0 0.00 0.00 0.00 72 1019.5
20260830220031 30 215 0.0 0.0 0.00 0.00 0.00 77 1019.8
20260830215526 30 173 0.0 0.0 0.00 0.00 0.00 79 1019.7
20260830215020 29 205 0.0 0.0 0.00 0.00 0.00 81 1019.8
20260830214515 30 207 0.0 0.0 0.00 0.00 0.00 83 1019.4
20260830214010 30 165 0.0 0.0 0.00 0.00 0.00 79 1019.7
20260830213505 31 167 0.0 0.0 0.00 0.00 0.00 74 1019.7
20260830213000 31 163 0.0 0.0 0.00 0.00 0.00 73 1019.5
20260830212456 31 220 0.0 0.0 0.00 0.00 0.00 71 1019.6
20260830211955 31 220 0.0 0.0 0.00 0.00 0.00 69 1019.7
20260830211450 32 205 0.0 0.0 0.00 0.00 0.00 66 1019.5
20260830210945 32 160 0.0 0.0 0.00 0.00 0.00 65 1019.7
20260830210445 32 182 0.0 0.0 0.00 0.00 0.00 66 1019.8
20260830205937 32 194 0.0 0.0 0.00 0.00 0.00 65 1019.7
20260830205436 33 217 0.0 0.0 0.00 0.00 0.00 63 1019.8
20260830204932 32 232 0.0 0.0 0.00 0.00 0.00 63 1019.8
20260830204431 33 223 0.0 0.0 0.00 0.00 0.00 61 1019.8
20260830203926 32 229 0.0 0.0 0.00 0.00 0.00 62 1019.8
20260830203422 31 246 0.0 0.0 0.00 0.00 0.00 62 1019.8
20260830202921 31 225 0.0 0.0 0.00 0.00 0.00 71 1019.8
20260830202416 31 231 0.0 0.0 0.00 0.00 0.00 65 1019.9
20260830201912 31 211 0.0 0.0 0.00 0.00 0.00 64 1019.9
20260830201406 31 352 0.0 0.0 0.00 0.00 0.00 65 1020.0
20260830200902 31 248 0.0 0.0 0.00 0.00 0.00 65 1020.0
20260830200401 31 246 0.0 0.0 0.00 0.00 0.00 66 1020.2
20260830195857 31 193 0.0 0.0 0.00 0.00 0.00 66 1020.3
20260830195356 31 194 0.0 0.0 0.00 0.00 0.00 67 1020.3
20260830194854 31 217 0.0 0.0 0.00 0.00 0.00 66 1020.4
20260830194348 32 165 0.0 0.0 0.00 0.00 0.00 63 1020.4
20260830193843 32 202 0.0 0.0 0.00 0.00 0.00 64 1020.4
20260830193337 32 239 0.0 0.0 0.00 0.00 0.00 63 1020.5
20260830192833 33 174 0.0 0.0 0.00 0.00 0.00 61 1020.5
20260830192333 33 80 0.0 0.0 0.00 0.00 0.00 61 1020.5
20260830191829 32 219 0.0 0.0 0.00 0.00 0.00 64 1020.7
20260830191328 31 190 0.0 0.0 0.00 0.00 0.00 67 1020.7
20260830190824 30 256 0.0 0.0 0.00 0.00 0.00 75 1020.5
20260830190324 30 273 0.0 0.0 0.00 0.00 0.00 73 1020.9
20260830185823 30 226 0.0 0.0 0.00 0.00 0.00 76 1021.1
20260830185318 31 220 0.0 0.0 0.00 0.00 0.00 73 1020.9
20260830184813 31 213 0.0 0.0 0.00 0.00 0.00 70 1020.9
20260830184312 31 213 0.0 0.0 0.00 0.00 0.00 67 1021.1
20260830183808 31 95 0.0 0.0 0.00 0.00 0.00 66 1020.9
20260830183307 30 229 0.0 0.0 0.00 0.00 0.00 72 1021.0
20260830182803 30 225 0.0 0.0 0.00 0.00 0.00 72 1021.0
20260830182258 30 221 0.0 0.0 0.00 0.00 0.00 72 1021.1
20260830181755 30 217 0.0 0.0 0.00 0.00 0.00 71 1021.2
20260830181250 30 224 0.0 0.0 0.00 0.00 0.00 73 1021.4
20260830180748 30 211 0.0 0.0 0.00 0.00 0.00 71 1021.5
20260830180244 30 226 0.0 0.0 0.00 0.00 0.00 69 1021.4
20260830175737 30 41 0.0 0.0 0.00 0.00 0.00 69 1021.8
20260830175233 30 227 0.0 0.0 0.00 0.00 0.00 74 1021.8
20260830174727 30 251 0.0 0.0 0.00 0.00 0.00 70 1021.6
20260830174223 30 192 0.0 0.0 0.00 0.00 0.00 70 1021.5
20260830173722 30 243 0.0 0.0 0.00 0.00 0.00 70 1021.8
20260830173218 31 245 0.0 0.0 0.00 0.00 0.00 70 1022.0
20260830172714 31 154 0.0 0.0 0.00 0.00 0.00 68 1022.2
20260830172211 31 331 0.0 0.0 0.00 0.00 0.00 67 1021.9
20260830171706 31 114 0.0 0.0 0.00 0.00 0.00 69 1022.2
20260830171201 31 229 0.0 0.0 0.00 0.00 0.00 69 1022.1
20260830170655 31 200 0.0 0.0 0.00 0.00 0.00 69 1022.5
20260830170154 30 230 0.0 0.0 0.00 0.00 0.00 71 1022.4
20260830165649 31 138 0.0 0.0 0.00 0.00 0.00 68 1022.4
20260830165145 30 179 0.0 0.0 0.00 0.00 0.00 73 1022.7
20260830164641 30 189 0.0 0.0 0.00 0.00 0.00 73 1022.8
20260830164137 30 168 0.0 0.0 0.00 0.00 0.00 71 1022.9
20260830163633 30 203 0.0 0.0 0.00 0.00 0.00 72 1023.0
20260830163133 31 213 0.0 0.0 0.00 0.00 0.00 71 1023.0
20260830162628 31 161 0.0 0.0 0.00 0.00 0.00 69 1022.9
20260830162125 30 212 0.0 0.0 0.00 0.00 0.00 71 1022.9
20260830161624 31 129 0.0 0.0 0.00 0.00 0.00 70 1023.2
20260830161119 31 33 0.0 0.0 0.00 0.00 0.00 70 1023.2
20260830160615 31 56 0.0 0.0 0.00 0.00 0.00 70 1023.1
20260830160110 30 125 0.0 0.0 0.00 0.00 0.00 73 1023.2
20260830155606 31 154 0.0 0.0 0.00 0.00 0.00 71 1023.3
20260830155102 31 198 0.0 0.0 0.00 0.00 0.00 74 1023.5
20260830154557 30 356 0.0 0.0 0.00 0.00 0.00 75 1023.5
20260830154053 29 228 0.0 0.0 0.00 0.00 0.00 78 1023.6
20260830153549 29 98 0.0 0.0 0.00 0.00 0.00 78 1023.5
20260830153049 30 38 0.0 0.0 0.00 0.00 0.00 76 1023.4
20260830152543 29 156 0.0 0.0 0.00 0.00 0.00 77 1023.5